Regional Weather Roundup
Issued by NWS Portland, ME

Current Version | Previous Version | Text Only | Print | Product List | Glossary Off
Versions: 1 2 3 4 5 6 7 8 9 10 11 12 13 14 15 16 17 18 19 20 21 22 23 24 25 26 27 28 29 30 31 32 33 34 35 36 37 38 39 40 41 42 43 44 45 46 47 48 49 50
091 ASUS41 KGYX 261910 RWRGYX WEATHER ROUNDUP FOR MAINE AND NEW HAMPSHIRE NATIONAL WEATHER SERVICE GRAY ME 300 PM EDT WED APR 26 2017 MEZ002-005-006-010-012-015-018-020-021-024-026-027-029-262000- MAINE CITY SKY/WX TMP DP RH WIND PRES REMARKS PORTLAND LGT RAIN 53 52 96 VRB5 29.93S FOG SANFORD RAIN 54 53 97 NE6 29.91F FOG BAR HARBOR CLOUDY 55 54 96 S17G24 30.01S WISCASSET CLOUDY 56 55 97 S10G21 29.95F ROCKLAND LGT RAIN 52 51 97 SE10G17 29.96F FOG FRYEBURG CLOUDY 52 51 97 N5 29.95F LEWISTONAUBURN LGT RAIN 53 52 96 NE5 29.95S FOG AUGUSTA LGT RAIN 54 52 93 N7 29.96F FOG WATERVILLE LGT RAIN 54 53 97 N6 29.94S FOG BANGOR DRIZZLE 56 55 97 SE5 29.99F FOG GREENVILLE N/A 50 50 100 SE6 29.96F MILLINOCKET LGT RAIN 52 52 100 E5 30.02F FOG HOULTON CLOUDY 55 54 96 S6 30.02F PRESQUE ISLE LGT RAIN 51 49 92 SE6 30.04S FRENCHVILLE LGT RAIN 47 45 93 SE5 30.02S VSB 1/4 CARIBOU CLOUDY 51 48 89 S6 30.03S $$ NHZ002-005-008-009-011-012-014-262000- NEW HAMPSHIRE CITY SKY/WX TMP DP RH WIND PRES REMARKS PORTSMOUTH DRZL/FOG 54 54 99 E8 29.87F VSB 3/4 ROCHESTER LGT RAIN 54 52 93 NE5 29.89S FOG NASHUA CLOUDY 55 54 96 VRB3 29.87F FOG MANCHESTER CLOUDY 55 52 89 N7 29.86S FOG CONCORD CLOUDY 55 53 93 NE7 29.88S FOG LACONIA CLOUDY 52 50 93 NE8 29.90F PLYMOUTH CLOUDY 54 52 92 CALM 29.91S FOG BERLIN LGT RAIN 57 51 80 CALM 29.93F WHITEFIELD CLOUDY 60 50 69 E13 29.89S JAFFREY CLOUDY 54 54 100 VRB5 29.86F KEENE LGT RAIN 55 53 93 N6 29.86S LEBANON CLOUDY 58 53 84 NE7 29.87F MT WASHINGTON FOG 45 45 100 S41G51 N/A VSB 1/16 $$ VTZ005-007-008-262000- VERMONT CITY SKY/WX TMP DP RH WIND PRES REMARKS ST JOHNSBURY N/A 62 55 77 MISG 29.87S MONTPELIER LGT RAIN 55 54 96 CALM 29.93S BURLINGTON CLOUDY 69 54 58 VRB6 29.82F $$ MAZ007-012-024-CTZ003-RIZ002-NYZ038-NYZ072-262000- SOUTHERN NEW ENGLAND AND NY CITY SKY/WX TMP DP RH WIND PRES REMARKS BOSTON LGT RAIN 53 53 100 NE7 29.84F VSB 1/4 WORCESTER FOG 53 51 93 NE9 29.84S VSB 1/4 NANTUCKET FOG 54 52 93 SE24G31 29.78F VSB 1/4 PROVIDENCE LGT RAIN 59 59 100 NE6 29.81F FOG HARTFORD CLOUDY 59 54 83 N10 29.82S ALBANY PTSUNNY 66 56 70 N3 29.80F NEW YORK CITY CLOUDY 59 55 87 NE10 29.77S $$ ANZ081-ANZ082-ANZ150-NHZ014-MEZ023>029-262000- COASTAL MARINE OBSERVATIONS STATION/POSITION TIME TEMP WIND PRES WAVE AIR SEA DIR/SP/G HT/PER (UTC) (F) (DEG/KT/KT) (MB) (FT/S) MOUNT DESERT ROC 1900 48 1015.4F MATINICUS ROCK 1900 48 140/ 23/ 25 1013.5F ISLE OF SHOALS 1900 50 40/ 5/ 6 1011.7F JEFFREYS LEDGE 1806 44 N/A 7/ 6 CASHES LEDGE BUO 1850 49 43 1012.9R 8/11 GEORGES BANK BUO 1750 53 42 1016.4 13/ 9 $$ .............KEY.............. WCI - WIND CHILL TC - TEMPERATURE IN CELSIUS VSB - VISIBILITY IN MILES HX - HEAT INDEX FAIR- INDICATES FEW OR NO CLOUDS BELOW 12,000 FT, WITH NO SIGNIFICANT WEATHER AND/OR OBSTRUCTIONS TO VISIBILITY.

USA.gov is the U.S. government's official web portal to all federal, state and local government web resources and services.